Vertical_Velocity
1 1 0 0 0 1 0 0 0 -0 -1 -1 -1 1 2 3 3 3 3 2 1 1 1 2 1 1 1 2 2 1 -0 -1 1 3 4 2 1 4 8 10 4 -0 -4 -5 -4 -3 -2 -2 -3 -3 -2 -1 1 2 2 6 9 9 6 0 -2 -2 -0 5 4 5 6 7 6
2 1 1 1 1 1 1 1 1 1 1 0 0 0 1 2 3 3 4 4 3 3 4 4 2 2 3 4 5 4 2 -1 -1 1 2 1 2 3 4 1 2 2 1 -1 -2 -1 -0 -1 -0 -0 -1 -2 2 3 3 2 4 4 0 -6 -4 -0 4 6 4 4 6 8 5
2 2 2 2 2 1 1 1 1 2 2 2 2 2 1 1 2 2 2 3 4 4 5 4 3 3 3 4 6 5 2 -2 -1 -0 0 1 4 4 3 -0 1 2 2 3 4 4 3 2 2 2 2 0 3 4 4 1 1 -0 -3 -7 -2 1 3 2 2 4 6 6 4
2 2 2 3 3 3 2 2 2 2 3 3 2 2 2 2 1 1 0 0 1 1 1 1 2 3 5 6 7 6 2 -3 -2 -1 1 4 6 6 4 0 -1 -1 -1 2 6 8 7 5 5 5 5 4 6 6 5 3 -2 -4 -4 -1 1 2 3 2 1 3 5 6 6
3 3 3 3 4 4 4 3 3 4 3 3 2 2 2 2 2 2 1 0 -1 -2 -2 -2 -1 1 3 6 9 12 9 -1 -4 -1 3 4 4 4 4 3 0 -2 -2 1 6 9 9 5 6 6 6 5 7 7 4 -3 -10 -9 -5 -0 1 2 2 0 1 3 5 6 6
3 3 3 2 2 3 3 3 3 3 2 2 2 2 2 2 3 4 5 6 6 5 4 2 1 0 0 0 2 5 5 -1 -3 -1 2 2 1 2 3 3 0 -1 -1 -0 3 4 4 2 3 4 5 6 5 3 -1 -10 -9 -5 -0 3 4 4 4 3 3 4 6 6 5
3 2 2 1 1 1 1 1 1 1 1 1 1 2 2 1 1 1 2 4 7 8 9 8 8 5 2 -1 -1 -1 -1 -2 -2 -1 -1 -1 0 1 2 0 -1 -1 -1 -1 0 1 3 4 6 6 5 5 4 2 -0 -3 -2 -2 -1 2 1 2 3 3 2 4 5 5 3
2 1 1 1 0 0 0 0 0 0 0 0 0 1 1 1 0 -0 -1 -1 -2 1 5 8 10 9 5 -1 -0 -0 -0 -1 -0 -1 -2 -1 -0 -0 -1 -1 -2 -2 -2 -2 0 3 5 6 7 6 5 4 5 4 3 2 3 1 -1 -2 -3 -1 2 4 3 3 4 3 2
1 1 0 0 0 -0 -0 -0 -0 -0 -0 -0 0 1 1 1 0 0 0 -0 -1 -1 0 5 10 9 4 -2 -1 -1 -1 -1 0 0 -1 -1 -2 -2 -2 -0 -0 -1 -2 -4 -2 0 3 6 7 6 5 4 5 4 4 4 4 4 3 2 2 2 2 2 2 2 1 1 1
1 0 0 -0 -0 -0 -0 -1 -1 -1 -0 -0 0 1 1 1 1 1 1 1 0 -0 1 4 5 2 -2 -3 -3 -4 -5 -3 -0 1 0 -3 -4 -4 -2 1 3 2 0 -3 -5 -3 -1 2 4 4 4 4 5 5 6 6 7 6 5 4 6 6 4 -1 -1 -1 -0 0 2
1 1 0 -0 -0 -0 -0 -0 -0 -0 0 1 1 2 3 3 2 1 0 -0 0 1 3 4 3 -0 -3 -4 -3 -3 -2 -1 1 -0 -2 -5 -4 -4 -2 -0 3 4 4 1 -1 -2 -2 -0 1 2 2 3 4 6 7 8 8 7 7 6 8 9 8 2 -1 -2 -1 1 4
1 1 1 0 0 0 0 0 1 2 2 3 3 2 2 1 -1 -1 -1 -1 0 -0 -0 0 2 1 -1 -1 -1 -0 -0 1 -0 -2 -4 -4 -3 -2 -2 -1 0 1 1 0 -1 -2 -2 -2 -1 0 1 2 4 6 6 6 5 5 4 4 5 7 9 7 2 -0 1 4 6
1 1 1 1 1 1 1 2 2 3 2 2 0 -1 -2 -2 -3 -2 -1 -0 -1 -3 -4 -2 -0 0 0 -0 -0 -0 -1 -0 -2 -3 -4 -3 -2 -1 -0 -0 -1 -2 -3 -3 -4 -4 -4 -3 -2 -0 2 2 3 4 4 3 2 2 1 1 3 4 6 6 4 2 2 7 9
1 1 1 1 2 2 2 2 2 1 0 -1 -2 -2 -2 -2 -1 -0 0 -1 -2 -2 -1 -1 -0 -0 -1 -1 -1 -1 -0 -0 -1 -2 -2 -1 -1 -0 0 -0 -1 -2 -2 -3 -4 -4 -3 -1 -0 1 2 2 2 2 1 1 1 1 0 0 1 2 3 4 1 1 2 7 9
0 0 0 1 2 1 1 0 -0 -1 -1 -1 -2 -1 -1 -1 -0 -0 -0 -0 -0 -0 -0 -0 -0 -0 -0 0 1 1 1 1 1 -0 -1 -1 -1 -0 0 1 2 2 1 -0 -1 -2 -1 -0 0 1 1 1 0 -0 -1 -0 -0 -0 -1 -2 -1 0 1 1 0 1 3 7 8
-0 -0 -1 -0 -0 -0 -1 -1 -2 -2 -2 -1 -2 -2 -1 -1 -1 -1 -1 -1 -0 0 0 0 0 0 1 2 3 3 3 3 2 2 1 -0 -1 -1 1 3 5 6 6 4 -1 -3 -2 0 1 1 0 0 -1 -1 -2 -2 -2 -2 -2 -2 -1 -0 -1 -2 -1 2 5 8 8
-1 -1 -2 -2 -2 -2 -2 -2 -3 -2 -2 -1 -1 -1 -1 -1 -1 -1 -1 -0 0 1 1 1 1 1 2 2 3 3 3 3 3 2 2 1 0 0 1 3 6 10 11 7 -4 -8 -6 -1 0 0 -0 -0 -1 -1 -2 -3 -3 -3 -2 -1 -0 -0 -0 -2 -1 2 6 10 6
-1 -2 -2 -3 -3 -2 -2 -2 -2 -1 -0 -0 -0 -0 -1 -1 -1 -1 -0 0 1 1 1 1 1 1 1 1 1 2 1 1 1 2 2 1 0 0 1 2 6 11 14 9 -4 -9 -8 -3 -2 -1 -1 0 0 -0 -1 -2 -3 -3 -3 -2 -1 -0 -1 -1 0 3 6 9 4
-1 -1 -2 -2 -2 -2 -1 -1 -1 -0 0 -0 -1 -1 -1 -1 -1 -1 -0 0 1 1 1 1 1 1 0 0 0 0 0 0 1 1 1 1 -0 -0 0 2 6 10 13 10 -0 -6 -8 -6 -4 -2 -0 1 1 1 0 -1 -1 -3 -4 -4 -3 -2 -2 -1 1 3 4 6 4
-1 -1 -1 -1 -1 -1 -1 -1 -1 -1 -1 -1 -1 -1 -1 -1 -1 -1 -0 0 1 1 1 1 1 1 0 0 0 0 0 0 0 1 1 1 0 0 1 3 5 7 8 8 3 -2 -6 -6 -4 -2 -0 1 2 2 2 2 -1 -4 -6 -6 -4 -3 -2 -1 -1 -0 1 3 5
-1 -1 -1 -1 -1 -1 -1 -2 -2 -2 -2 -1 -1 -1 -1 -0 -0 -0 -0 0 0 1 1 1 1 1 1 0 0 -0 -1 -0 -0 -0 0 0 1 2 2 2 2 3 4 6 4 1 -3 -6 -4 -2 0 2 3 4 3 1 -4 -8 -10 -8 -5 -3 -1 -1 -0 0 0 1 3
-0 -0 -0 -1 -1 -2 -2 -3 -3 -2 -1 -1 -1 -1 -1 -1 -1 -0 -0 -0 -1 -1 -0 0 1 1 1 1 0 0 -0 -0 -0 -1 -1 -1 0 1 1 0 0 1 2 5 4 1 -3 -5 -4 -1 1 2 4 5 3 -2 -7 -10 -10 -7 -4 -2 -1 -0 2 4 4 2 1
0 0 -0 -1 -1 -2 -2 -2 -1 -1 -0 -0 -0 -1 -1 -1 -1 -1 -1 -2 -2 -2 -2 -1 -1 0 0 1 1 0 0 1 1 0 -1 -2 -1 -1 -1 -1 0 2 4 5 4 0 -3 -4 -2 -1 1 3 6 5 1 -6 -9 -9 -7 -5 -3 -1 -0 1 4 6 6 5 2
1 1 0 -1 -1 -1 -1 -0 0 0 -0 -1 -1 -1 -1 -1 -1 -1 -2 -2 -3 -3 -3 -3 -3 -2 -2 -1 -1 -0 0 2 2 2 1 -1 -3 -4 -4 -2 0 3 6 6 3 -0 -3 -3 -1 1 3 4 4 1 -2 -6 -7 -6 -4 -2 -1 0 2 3 4 5 5 5 3
1 1 0 -0 -0 -0 0 1 1 0 -0 -0 -1 -1 -2 -2 -2 -2 -2 -2 -2 -3 -4 -4 -4 -4 -3 -3 -2 -0 1 2 4 4 3 0 -2 -4 -4 -3 -1 1 3 3 2 0 -1 -1 1 4 6 6 1 -3 -6 -6 -4 -3 -1 1 2 3 4 5 5 5 5 4 3
0 0 0 0 0 1 1 1 1 0 -0 -0 -1 -1 -2 -3 -3 -3 -3 -2 -3 -3 -4 -4 -4 -4 -3 -2 -1 -0 1 3 3 3 2 0 -1 -2 -2 -2 -3 -2 -2 -1 -0 0 1 1 2 4 5 4 0 -3 -4 -4 -2 -1 1 3 4 5 6 6 5 5 5 4 3
-0 -0 0 1 1 1 1 1 0 -0 -0 -0 -1 -2 -3 -3 -3 -3 -3 -3 -3 -4 -4 -4 -4 -3 -3 -2 -1 -0 1 1 1 1 0 -1 -1 -1 -1 -2 -3 -4 -4 -4 -2 -0 1 3 3 2 0 -0 -1 -2 -2 -1 -1 0 1 3 4 5 6 6 6 5 4 4 3
-0 0 1 2 1 1 0 0 -0 -1 -1 -1 -1 -2 -3 -3 -3 -3 -2 -2 -3 -3 -4 -4 -3 -3 -2 -2 -1 -1 -0 -0 -0 -1 -1 -1 -1 -1 -2 -2 -3 -3 -4 -4 -4 -2 -0 2 2 1 -1 -4 -4 -4 -3 -1 0 1 1 2 3 4 4 5 5 4 4 4 3
0 1 1 2 1 0 -0 -1 -1 -1 -1 -1 -1 -2 -3 -3 -2 -2 -1 -1 -2 -2 -3 -3 -2 -2 -2 -2 -2 -1 -1 -1 -1 -1 -1 -1 -1 -2 -2 -2 -2 -2 -3 -4 -4 -3 -1 2 2 0 -3 -6 -6 -5 -3 -1 1 1 1 1 1 2 2 3 3 3 3 3 3
1 1 1 1 1 -0 -1 -1 -1 -1 -1 -1 -1 -2 -2 -2 -1 -1 -1 -1 -1 -1 -1 -1 -1 -1 -2 -1 -1 -1 -0 -1 -1 -1 -1 -1 -1 -1 -2 -2 -2 -2 -2 -3 -2 -0 1 2 1 -2 -5 -7 -6 -4 -1 0 1 1 0 -0 0 0 1 1 2 2 2 2 2
1 1 1 0 -0 -0 -0 -1 -1 -1 -1 -1 -2 -2 -2 -1 -1 -1 -0 -0 -0 -0 -0 -0 -0 -0 -0 -0 -0 -0 -1 -1 -1 -1 -1 -1 -1 -1 -1 -1 -1 -2 -1 -1 0 1 1 0 -2 -5 -7 -7 -4 -2 -1 0 1 0 -0 -1 -0 -0 0 1 1 1 1 1 1
-0 -0 -0 -1 -1 -1 -1 -1 -1 -1 -2 -2 -2 -2 -2 -1 -1 -1 -1 -1 0 0 0 0 -0 -0 -0 -0 -1 -1 -2 -2 -2 -2 -1 -1 -1 -1 -1 -1 -1 -1 -0 0 0 -0 -1 -3 -5 -6 -6 -5 -3 -2 -1 -0 -1 -1 -1 -1 -1 -0 -0 0 0 0 0 0 0
-1 -1 -1 -2 -2 -1 -1 -1 -2 -2 -2 -2 -2 -2 -2 -1 -1 -2 -2 -1 -0 0 0 0 -0 -0 -1 -1 -2 -2 -2 -2 -1 -1 -0 -0 -1 -1 -1 -1 -1 -1 -1 -1 -2 -3 -4 -4 -5 -4 -4 -3 -2 -2 -1 -1 -2 -2 -1 -1 -1 -0 -0 -0 0 0 0 0 0
-1 -1 -1 -2 -2 -2 -2 -2 -2 -2 -2 -2 -2 -1 -1 -1 -1 -2 -1 -1 -0 -0 -1 -1 -1 -2 -2 -2 -2 -2 -2 -1 -0 -0 -0 -1 -1 -1 -2 -3 -3 -2 -2 -3 -3 -4 -4 -4 -3 -3 -2 -2 -1 -1 -1 -1 -1 -1 -1 -1 -1 -0 -0 -0 -0 -0 -0 -0 -1
-1 -1 -1 -2 -2 -2 -2 -2 -2 -2 -2 -1 -1 -1 -1 -1 -1 -1 -0 1 0 -0 -1 -1 -2 -2 -2 -1 -1 -1 -1 -1 -1 -1 -1 -1 -1 -1 -2 -3 -3 -3 -3 -3 -3 -2 -2 -2 -1 -1 -1 -1 -1 -1 -1 -1 -1 -0 -0 -0 -0 -0 -0 -1 -1 -1 -2 -2 -2
-1 -1 -1 -1 -1 -1 -1 -1 -1 -1 -1 -0 -0 -1 -1 -1 -1 0 1 1 1 0 -0 -1 -1 -1 -1 -1 -1 -1 -1 -1 -1 -1 -1 -1 -1 -1 -2 -2 -3 -3 -3 -2 -2 -2 -1 -1 -1 -1 -1 -1 -1 -1 -1 -0 -0 -0 -0 -1 -1 -1 -2 -2 -2 -2 -2 -2 -2
-1 -1 -1 -1 -1 -1 -1 -1 -1 -1 -1 -1 -1 -1 -1 -1 -0 0 1 1 1 0 0 0 0 0 -0 -1 -1 -1 -1 -1 -1 -1 -1 -1 -0 -1 -1 -1 -2 -2 -2 -1 -1 -1 -1 -1 -1 -1 -2 -2 -1 -1 -1 -1 -1 -1 -2 -2 -2 -2 -2 -2 -2 -1 -1 -1 -1
-1 -1 -1 -1 -1 -1 -1 -1 -1 -1 -1 -1 -1 -1 -1 -1 -1 -0 0 0 -0 -0 -1 -0 -1 -1 -1 -1 -1 -1 -1 -1 -1 -1 -1 -1 -1 -1 -1 -1 -1 -1 -1 -0 -0 -0 -0 -0 -1 -1 -1 -1 -1 -2 -2 -2 -2 -2 -1 -1 -1 -1 -1 -1 -0 -0 0 0 0
-1 -1 -1 -1 -1 -1 -1 -1 -1 -1 -1 -2 -2 -2 -2 -2 -2 -2 -2 -1 -1 -2 -2 -2 -2 -2 -2 -1 -2 -2 -2 -2 -2 -1 -1 -1 -1 -1 -1 -1 -1 -1 -0 -0 -0 -0 -0 -0 -1 -1 -1 -2 -2 -2 -2 -1 -1 -1 -1 -1 -1 -0 -0 -0 -0 0 0 0 0
-1 -1 -1 -1 -1 -1 -1 -1 -1 -1 -1 -1 -2 -2 -2 -2 -3 -2 -2 -2 -2 -2 -2 -2 -2 -2 -2 -2 -2 -2 -3 -3 -2 -2 -1 -1 -1 -1 -1 -1 -1 -1 -1 -0 -0 -1 -1 -1 -1 -2 -2 -2 -2 -1 -1 -1 -1 -1 -1 -1 -1 -0 -0 0 0 -0 -0 0 0
-1 -1 -1 -1 -1 -1 -1 -1 -1 -1 -1 -1 -1 -2 -2 -2 -2 -2 -2 -2 -1 -1 -2 -2 -2 -2 -2 -2 -2 -2 -2 -2 -1 -1 -1 -1 -1 -1 -0 -0 -0 -0 -0 -0 -1 -1 -1 -1 -1 -2 -2 -1 -1 -1 -1 -1 -1 -0 -0 -0 -0 -0 -0 -0 -0 -0 -0 -0 -0
Height
1482 1482 1483 1483 1484 1484 1484 1485 1485 1486 1486 1487 1487 1487 1488 1488 1488 1488 1488 1488 1488 1488 1488 1488 1488 1488 1488 1488 1488 1488 1488 1488 1489 1489 1489 1488 1488 1489 1489 1488 1487 1487 1487 1487 1487 1486 1485 1485 1484 1484 1483 1483 1482 1482 1481 1481 1481 1482 1482 1483 1485 1485 1486 1486 1485 1485 1485 1485 1485
1481 1482 1482 1482 1482 1483 1483 1483 1484 1484 1484 1485 1485 1486 1486 1486 1487 1487 1487 1487 1487 1487 1487 1487 1487 1487 1487 1487 1487 1487 1487 1487 1487 1487 1487 1486 1486 1487 1487 1486 1486 1485 1485 1485 1485 1485 1484 1483 1483 1482 1481 1481 1480 1479 1479 1479 1480 1481 1481 1482 1483 1483 1483 1483 1482 1482 1482 1482 1482
1481 1481 1481 1481 1482 1482 1482 1482 1482 1483 1483 1483 1484 1484 1484 1485 1485 1485 1485 1485 1485 1485 1485 1485 1485 1486 1486 1486 1486 1486 1485 1484 1485 1485 1484 1484 1484 1484 1484 1484 1484 1484 1484 1484 1484 1483 1482 1482 1481 1480 1479 1478 1478 1478 1478 1478 1478 1479 1480 1481 1481 1481 1481 1480 1480 1480 1480 1480 1480
1480 1480 1481 1481 1481 1481 1481 1481 1482 1482 1482 1482 1482 1482 1483 1483 1483 1483 1483 1484 1484 1484 1484 1484 1484 1484 1485 1485 1485 1484 1483 1483 1482 1482 1482 1482 1482 1482 1482 1482 1482 1482 1482 1482 1482 1481 1480 1480 1479 1478 1477 1477 1477 1476 1476 1476 1477 1477 1478 1479 1479 1479 1478 1478 1478 1479 1478 1477 1477
1480 1480 1480 1480 1480 1480 1480 1481 1481 1481 1481 1481 1481 1482 1482 1482 1482 1482 1482 1482 1482 1482 1482 1482 1483 1483 1483 1483 1483 1483 1482 1481 1480 1480 1480 1480 1480 1480 1480 1480 1480 1480 1480 1480 1480 1479 1478 1478 1477 1477 1476 1475 1475 1475 1475 1475 1476 1477 1477 1478 1477 1477 1476 1476 1476 1476 1476 1476 1476
1479 1479 1479 1479 1479 1479 1479 1479 1480 1480 1480 1480 1480 1480 1481 1481 1481 1481 1482 1482 1482 1482 1482 1482 1481 1481 1481 1481 1481 1481 1480 1479 1478 1478 1478 1478 1478 1478 1478 1478 1478 1478 1478 1478 1478 1477 1477 1477 1476 1475 1474 1474 1473 1473 1473 1474 1474 1475 1475 1475 1475 1474 1474 1474 1474 1474 1474 1474 1474
1478 1478 1478 1478 1478 1478 1478 1478 1478 1478 1479 1479 1479 1479 1479 1479 1480 1480 1480 1480 1481 1481 1481 1480 1480 1480 1479 1479 1479 1478 1478 1478 1477 1477 1477 1477 1477 1477 1477 1476 1476 1476 1476 1476 1476 1476 1475 1475 1474 1473 1472 1472 1472 1472 1472 1472 1472 1472 1472 1472 1472 1472 1472 1472 1472 1472 1472 1472 1472
1477 1477 1477 1477 1477 1477 1477 1477 1477 1477 1477 1478 1478 1478 1478 1478 1478 1478 1478 1478 1479 1479 1479 1479 1479 1478 1478 1477 1477 1477 1476 1476 1476 1476 1476 1476 1475 1475 1475 1475 1475 1475 1475 1474 1474 1474 1473 1473 1472 1472 1471 1471 1470 1470 1469 1469 1469 1470 1470 1471 1470 1470 1470 1470 1470 1470 1470 1470 1470
1476 1476 1476 1476 1476 1476 1476 1476 1476 1476 1476 1477 1477 1477 1477 1477 1477 1477 1477 1477 1477 1477 1478 1478 1477 1477 1476 1476 1476 1475 1474 1474 1474 1474 1474 1474 1474 1473 1473 1473 1473 1473 1473 1473 1473 1472 1472 1472 1471 1470 1470 1469 1469 1468 1468 1468 1467 1468 1468 1468 1468 1468 1468 1468 1468 1468 1468 1468 1468
1475 1474 1474 1474 1474 1474 1475 1475 1475 1475 1475 1475 1475 1475 1475 1475 1475 1475 1475 1475 1475 1475 1476 1476 1476 1475 1474 1474 1473 1473 1472 1472 1472 1472 1472 1472 1472 1472 1472 1472 1472 1472 1472 1472 1472 1472 1471 1471 1470 1469 1469 1468 1468 1467 1467 1467 1467 1466 1466 1466 1466 1465 1465 1465 1466 1466 1466 1466 1465
1473 1473 1473 1473 1473 1473 1473 1473 1473 1473 1474 1474 1474 1474 1474 1473 1473 1473 1473 1473 1473 1473 1474 1474 1473 1473 1472 1472 1472 1471 1471 1471 1471 1471 1471 1471 1471 1471 1471 1471 1470 1471 1471 1471 1471 1470 1470 1470 1469 1468 1468 1468 1467 1467 1467 1466 1466 1466 1465 1465 1465 1464 1463 1463 1464 1464 1464 1463 1463
1472 1472 1472 1472 1472 1472 1472 1472 1472 1472 1472 1472 1472 1472 1472 1472 1471 1471 1471 1472 1472 1471 1471 1471 1471 1471 1470 1470 1470 1469 1469 1469 1469 1469 1469 1469 1469 1469 1469 1469 1469 1469 1469 1469 1469 1469 1469 1469 1468 1468 1467 1467 1467 1466 1466 1466 1466 1466 1466 1465 1465 1464 1463 1462 1462 1462 1462 1461 1461
1471 1471 1471 1471 1471 1471 1471 1471 1471 1471 1471 1470 1470 1469 1469 1469 1469 1469 1470 1470 1469 1469 1469 1469 1469 1468 1468 1468 1468 1467 1467 1467 1467 1467 1467 1467 1468 1467 1467 1467 1467 1467 1467 1467 1467 1468 1467 1467 1467 1467 1466 1466 1466 1466 1466 1466 1466 1466 1466 1465 1465 1465 1464 1463 1462 1462 1461 1460 1460
1470 1470 1470 1470 1470 1470 1469 1469 1469 1469 1468 1468 1467 1467 1467 1467 1468 1468 1468 1468 1467 1467 1467 1467 1467 1467 1466 1466 1466 1466 1466 1466 1466 1466 1466 1466 1466 1466 1466 1466 1465 1465 1465 1466 1466 1466 1466 1466 1466 1465 1465 1465 1465 1465 1465 1465 1465 1465 1465 1465 1465 1465 1464 1464 1463 1462 1462 1460 1459
1469 1469 1469 1469 1468 1468 1468 1467 1467 1467 1467 1466 1466 1466 1466 1466 1467 1467 1467 1467 1466 1466 1466 1466 1465 1465 1465 1465 1464 1464 1464 1464 1464 1464 1464 1464 1464 1464 1464 1464 1464 1464 1463 1463 1464 1464 1465 1464 1464 1464 1464 1464 1464 1464 1464 1464 1464 1465 1465 1465 1465 1465 1464 1464 1463 1463 1462 1461 1460
1468 1467 1467 1467 1467 1467 1466 1466 1466 1465 1465 1465 1465 1465 1465 1465 1465 1465 1465 1465 1465 1465 1465 1464 1464 1464 1464 1464 1464 1464 1463 1463 1463 1463 1463 1463 1463 1463 1463 1463 1463 1462 1462 1461 1462 1463 1463 1463 1463 1463 1463 1463 1463 1463 1463 1463 1464 1464 1464 1464 1465 1464 1464 1464 1464 1464 1463 1462 1460
1467 1466 1466 1466 1466 1465 1465 1465 1464 1464 1464 1464 1464 1464 1464 1464 1464 1464 1464 1464 1464 1463 1463 1463 1463 1463 1463 1463 1463 1463 1463 1463 1463 1463 1463 1463 1463 1462 1462 1462 1462 1461 1460 1460 1461 1462 1463 1463 1462 1462 1462 1462 1462 1462 1462 1462 1463 1463 1463 1464 1464 1464 1464 1464 1464 1464 1463 1462 1461
1465 1465 1465 1464 1464 1464 1463 1463 1463 1463 1463 1463 1462 1462 1462 1462 1462 1462 1462 1462 1462 1462 1462 1462 1462 1462 1462 1462 1462 1462 1462 1462 1462 1462 1462 1462 1462 1462 1461 1461 1461 1461 1460 1458 1459 1461 1462 1462 1462 1462 1461 1461 1461 1461 1461 1461 1461 1462 1462 1463 1463 1464 1464 1464 1464 1464 1464 1463 1462
1464 1464 1463 1463 1463 1462 1462 1462 1462 1462 1462 1462 1462 1462 1461 1461 1461 1461 1461 1461 1461 1461 1461 1461 1461 1461 1461 1461 1461 1461 1461 1461 1461 1461 1461 1461 1460 1460 1460 1460 1460 1459 1458 1457 1457 1458 1460 1461 1461 1461 1460 1460 1459 1459 1459 1459 1460 1461 1462 1462 1463 1463 1463 1463 1463 1464 1464 1463 1462
1463 1462 1462 1462 1462 1462 1462 1461 1461 1461 1461 1461 1461 1461 1460 1460 1460 1460 1460 1460 1460 1460 1460 1460 1460 1460 1460 1460 1460 1460 1460 1460 1460 1460 1460 1460 1459 1459 1459 1459 1459 1458 1457 1456 1456 1457 1458 1459 1459 1459 1459 1459 1458 1458 1458 1458 1459 1460 1461 1462 1462 1462 1462 1462 1463 1463 1463 1462 1461
1462 1462 1461 1461 1461 1461 1461 1460 1460 1460 1460 1460 1459 1459 1459 1459 1459 1459 1459 1459 1459 1459 1459 1459 1459 1459 1459 1459 1459 1459 1459 1458 1458 1458 1458 1458 1458 1458 1458 1458 1457 1457 1456 1455 1455 1455 1456 1457 1458 1458 1458 1458 1458 1457 1457 1457 1458 1459 1460 1461 1461 1461 1462 1462 1462 1462 1462 1462 1461
1461 1461 1461 1460 1460 1460 1460 1459 1459 1459 1459 1458 1458 1458 1458 1458 1458 1458 1458 1458 1458 1458 1458 1458 1458 1458 1458 1458 1458 1458 1458 1457 1457 1457 1457 1457 1457 1457 1457 1457 1457 1456 1456 1455 1455 1455 1455 1456 1457 1457 1457 1457 1457 1457 1456 1457 1458 1459 1460 1460 1460 1460 1461 1461 1461 1461 1461 1460 1460
1461 1460 1460 1460 1459 1459 1459 1459 1458 1458 1458 1457 1457 1457 1457 1457 1457 1457 1457 1457 1457 1457 1457 1457 1457 1457 1457 1457 1457 1457 1457 1457 1457 1456 1456 1456 1456 1456 1456 1456 1456 1456 1455 1454 1454 1454 1454 1455 1456 1457 1457 1457 1456 1456 1456 1456 1457 1458 1458 1459 1459 1459 1460 1460 1461 1460 1460 1459 1459
1460 1460 1459 1459 1459 1458 1458 1458 1457 1457 1457 1457 1457 1456 1456 1456 1456 1456 1456 1456 1456 1456 1456 1456 1456 1456 1456 1456 1456 1456 1456 1456 1456 1456 1456 1455 1455 1455 1455 1455 1455 1455 1454 1454 1453 1453 1454 1455 1456 1456 1456 1456 1456 1455 1455 1456 1457 1457 1458 1458 1458 1459 1460 1460 1460 1460 1460 1459 1459
1459 1459 1459 1458 1458 1458 1457 1457 1457 1457 1456 1456 1456 1456 1456 1456 1455 1455 1455 1455 1455 1455 1455 1455 1455 1455 1456 1456 1456 1456 1456 1456 1455 1455 1455 1455 1455 1455 1455 1455 1455 1454 1454 1453 1453 1453 1454 1455 1455 1456 1455 1455 1455 1455 1456 1456 1457 1457 1457 1458 1459 1459 1460 1460 1460 1460 1459 1459 1459
1458 1458 1458 1458 1458 1457 1457 1457 1456 1456 1456 1456 1456 1456 1456 1456 1456 1456 1455 1455 1455 1454 1455 1455 1455 1455 1455 1455 1455 1456 1456 1455 1455 1455 1454 1454 1454 1454 1454 1454 1454 1454 1454 1454 1454 1454 1454 1455 1455 1455 1455 1455 1455 1455 1456 1457 1457 1457 1458 1458 1459 1459 1460 1460 1460 1459 1459 1459 1459
1457 1457 1457 1457 1457 1457 1456 1456 1456 1456 1456 1456 1456 1456 1456 1456 1456 1456 1456 1455 1455 1455 1455 1455 1455 1455 1455 1455 1455 1455 1455 1455 1455 1454 1454 1453 1453 1454 1454 1454 1454 1454 1454 1455 1455 1455 1455 1455 1455 1455 1455 1455 1455 1456 1456 1457 1457 1458 1458 1459 1459 1460 1460 1460 1460 1460 1459 1459 1459
1457 1457 1457 1457 1457 1456 1456 1456 1456 1456 1456 1456 1456 1456 1456 1456 1456 1456 1456 1456 1456 1455 1455 1455 1455 1455 1455 1455 1455 1455 1455 1455 1454 1454 1454 1454 1454 1454 1454 1454 1454 1454 1455 1455 1455 1455 1455 1455 1455 1455 1455 1455 1456 1457 1457 1457 1458 1458 1459 1459 1460 1460 1460 1460 1460 1460 1460 1460 1460
1457 1457 1456 1456 1456 1456 1456 1456 1456 1456 1456 1456 1456 1456 1456 1456 1456 1456 1456 1456 1456 1456 1455 1455 1455 1455 1455 1455 1455 1455 1455 1455 1454 1454 1454 1454 1454 1454 1454 1455 1455 1455 1455 1455 1456 1456 1456 1455 1455 1455 1456 1456 1457 1457 1458 1458 1459 1459 1460 1460 1461 1461 1461 1461 1461 1461 1461 1461 1461
1456 1456 1456 1456 1456 1455 1456 1456 1456 1456 1456 1456 1456 1456 1456 1456 1456 1456 1455 1455 1455 1455 1455 1455 1455 1455 1455 1455 1455 1455 1455 1455 1455 1455 1455 1455 1455 1455 1455 1455 1455 1455 1455 1456 1456 1456 1456 1456 1456 1456 1457 1457 1458 1459 1459 1460 1460 1460 1461 1461 1461 1462 1462 1462 1462 1462 1462 1462 1462
1456 1456 1455 1455 1455 1455 1455 1456 1456 1456 1456 1456 1456 1456 1455 1455 1455 1455 1455 1455 1455 1455 1455 1456 1456 1455 1455 1455 1455 1455 1455 1455 1455 1455 1455 1455 1455 1455 1455 1455 1455 1455 1456 1456 1457 1457 1457 1457 1457 1457 1458 1458 1459 1460 1460 1461 1461 1461 1462 1462 1462 1462 1462 1462 1462 1462 1462 1462 1462
1455 1455 1455 1455 1455 1455 1456 1456 1456 1456 1456 1456 1456 1456 1456 1456 1456 1456 1456 1456 1456 1456 1456 1456 1456 1456 1456 1456 1456 1456 1455 1455 1455 1456 1456 1456 1456 1456 1456 1456 1456 1456 1457 1457 1457 1457 1457 1457 1458 1458 1459 1460 1460 1461 1461 1462 1462 1462 1462 1462 1463 1463 1463 1463 1462 1462 1462 1462 1462
1455 1455 1456 1456 1456 1456 1456 1456 1456 1456 1456 1456 1456 1456 1456 1456 1456 1456 1456 1456 1456 1456 1456 1456 1456 1456 1456 1456 1456 1456 1456 1456 1456 1457 1457 1457 1457 1457 1457 1457 1457 1457 1458 1458 1458 1458 1458 1459 1459 1460 1460 1461 1461 1462 1462 1462 1462 1463 1463 1463 1463 1463 1463 1463 1463 1462 1462 1462 1462
1456 1456 1456 1456 1456 1456 1456 1456 1456 1457 1457 1457 1457 1457 1457 1457 1457 1457 1457 1457 1457 1457 1457 1457 1457 1457 1457 1457 1457 1457 1457 1457 1457 1458 1458 1458 1458 1458 1458 1458 1458 1459 1459 1459 1459 1459 1460 1460 1460 1461 1461 1462 1462 1462 1462 1462 1463 1463 1463 1463 1463 1463 1463 1463 1463 1462 1462 1462 1462
1456 1456 1457 1457 1457 1457 1457 1457 1457 1457 1457 1457 1457 1457 1457 1457 1457 1457 1457 1457 1457 1457 1457 1457 1457 1457 1458 1458 1458 1458 1459 1459 1459 1459 1459 1460 1460 1460 1459 1459 1459 1460 1460 1460 1460 1460 1460 1461 1461 1461 1462 1462 1462 1462 1462 1463 1463 1463 1463 1463 1463 1463 1463 1462 1462 1462 1462 1462 1461
1457 1457 1457 1457 1457 1457 1457 1457 1457 1457 1457 1457 1457 1457 1457 1457 1457 1458 1458 1458 1458 1458 1458 1458 1458 1458 1459 1459 1459 1460 1460 1460 1460 1460 1461 1461 1461 1461 1461 1460 1460 1461 1461 1461 1461 1461 1461 1462 1462 1462 1462 1462 1462 1462 1463 1463 1463 1463 1463 1463 1462 1462 1462 1462 1462 1462 1461 1461 1461
1457 1457 1457 1457 1457 1457 1457 1457 1457 1457 1457 1457 1458 1458 1458 1458 1458 1458 1459 1459 1459 1459 1459 1459 1460 1460 1460 1460 1461 1461 1461 1462 1462 1462 1462 1462 1462 1462 1462 1462 1462 1462 1462 1462 1462 1462 1462 1462 1462 1462 1463 1463 1463 1463 1463 1463 1463 1462 1462 1462 1462 1462 1462 1462 1462 1461 1461 1461 1460
1457 1457 1457 1457 1457 1457 1457 1458 1458 1458 1458 1458 1458 1458 1459 1459 1459 1459 1460 1460 1460 1460 1460 1461 1461 1461 1462 1462 1462 1462 1462 1463 1463 1463 1463 1463 1463 1463 1463 1463 1462 1462 1463 1463 1463 1463 1463 1463 1463 1463 1463 1463 1463 1463 1463 1463 1462 1462 1462 1462 1462 1462 1462 1462 1461 1461 1461 1461 1460
1458 1458 1458 1458 1458 1458 1458 1458 1459 1459 1459 1459 1459 1459 1460 1460 1460 1460 1461 1461 1461 1461 1462 1462 1462 1462 1463 1463 1463 1464 1464 1464 1464 1464 1464 1464 1464 1464 1464 1464 1463 1463 1463 1463 1463 1463 1463 1463 1463 1463 1463 1463 1463 1463 1462 1462 1462 1462 1462 1462 1462 1462 1462 1461 1461 1461 1461 1461 1461
1458 1458 1458 1459 1459 1459 1459 1459 1460 1460 1460 1460 1460 1460 1461 1461 1461 1462 1462 1462 1462 1462 1463 1463 1463 1464 1464 1465 1465 1465 1465 1465 1465 1465 1465 1465 1465 1465 1465 1464 1464 1464 1464 1464 1464 1464 1463 1463 1463 1463 1463 1463 1463 1463 1463 1462 1462 1462 1462 1462 1462 1462 1462 1461 1461 1461 1461 1460 1460
1459 1459 1459 1459 1460 1460 1460 1460 1460 1461 1461 1461 1461 1462 1462 1462 1462 1462 1463 1463 1463 1464 1464 1464 1464 1465 1465 1466 1466 1466 1466 1466 1466 1466 1466 1465 1465 1465 1465 1465 1464 1464 1464 1464 1463 1463 1463 1463 1463 1463 1463 1463 1463 1463 1463 1463 1463 1463 1463 1462 1462 1462 1462 1461 1461 1461 1461 1460 1460